Tracking 30970 objects as of 3-Jul-2025
HD Live streaming from Space Station
objects crossing your sky now

FREGAT R/B

Track FREGAT R/B now!


NORAD ID: 41551
Int'l Code: 2016-030C
Perigee: 23,499.1 km
Apogee: 23,634.8 km
Inclination: 55.1 °
Period: 859.2 minutes
Semi major axis: 29937 km
RCS: Unknown
Launch date: May 24, 2016
Source: Commonwealth of Independent States (former USSR) (CIS)
Launch site: FRENCH GUIANA (FRGUI)

Note: This is a ROCKET BODY
Your satellite tracking list
FENGYUN 1C DEB
Track 1 satellite(s)




NASA's NSSDC Master Catalog

Two Line Element Set (TLE):
1 41551U 16030C   25182.87531998  .00000025  00000-0  00000-0 0  9991
2 41551  55.1035 234.3804 0022669 232.5964 127.2743  1.67598228 55753
Source of the keplerian elements: AFSPC